Temperature
13 14 14 14 14 13 13 12 12 13 12 13 12 12 12 13 13 13 13 13 13 13 13 13 13 13 13 12 12 12 12 12 12 12 11 11 11 11 10 10 10 10 10 10
13 13 13 13 13 13 13 12 12 12 12 12 12 12 12 12 12 12 13 13 13 13 13 13 13 12 12 12 12 12 12 11 11 11 11 11 10 10 10 10 10 9 9 9
12 12 13 13 13 12 12 12 12 12 13 12 11 11 12 12 13 13 13 13 13 13 13 13 13 12 12 12 11 11 11 11 11 10 10 10 10 10 10 9 9 9 9 9
10 12 13 13 12 13 12 12 11 11 11 11 12 12 13 13 13 13 13 13 13 13 13 13 12 12 11 11 11 11 11 10 10 10 10 10 9 9 9 9 9 9 8 8
9 11 11 12 12 12 12 12 11 11 11 11 11 11 12 13 13 13 13 13 13 12 12 12 12 11 11 10 10 10 10 10 10 10 10 9 9 9 9 9 9 8 8 8
9 11 11 12 12 12 12 12 12 11 10 10 10 10 11 13 13 13 12 12 12 12 12 12 11 11 10 10 10 10 10 10 10 9 9 9 9 9 8 8 8 8 8 8
9 10 10 11 12 12 12 12 12 12 12 11 10 11 12 12 12 12 12 12 12 12 11 11 11 10 10 10 10 10 10 9 9 9 9 9 8 8 8 8 8 8 7 7
8 9 10 11 11 11 11 13 13 13 13 12 12 12 11 11 11 11 11 11 11 11 11 10 10 10 10 9 9 9 9 9 9 9 8 8 8 8 8 8 7 7 7 7
9 10 11 12 12 13 13 13 13 13 13 12 12 11 11 11 11 11 11 11 10 10 10 10 10 9 9 9 9 9 8 8 8 8 8 8 8 7 7 7 7 7 7 6
8 8 10 12 13 13 13 13 13 13 12 12 12 11 11 10 10 10 10 10 10 10 10 9 9 9 9 8 8 8 8 8 8 7 7 7 7 7 7 7 7 6 6 6
7 8 10 12 13 13 13 13 13 12 12 12 11 11 11 10 10 10 10 10 9 9 9 9 9 8 8 8 8 8 7 7 7 7 7 7 7 7 7 7 6 6 6 6
9 10 10 12 13 13 13 12 12 12 12 11 11 11 10 10 10 9 9 9 9 9 9 8 8 8 8 7 7 7 7 7 7 6 6 6 6 6 6 6 6 5 5 5
12 12 12 13 13 13 12 12 12 12 11 11 11 10 10 10 9 9 9 9 9 8 8 8 8 7 7 7 7 7 6 6 6 6 6 6 6 6 6 6 5 5 5 5
12 12 11 12 12 12 12 12 12 11 11 11 10 10 10 9 9 9 9 8 8 8 8 7 7 7 7 7 6 6 6 6 6 6 6 5 5 5 5 5 5 5 5 5
11 11 12 12 11 11 12 11 11 11 10 10 10 10 9 9 9 8 8 8 8 7 7 7 7 7 6 6 6 6 6 6 6 5 5 5 5 5 5 4 4 4 5 4
11 11 11 11 11 11 11 11 10 10 10 10 9 9 9 9 8 8 8 7 7 7 7 7 7 6 6 6 6 6 5 5 5 5 5 5 5 4 4 4 4 4 4 4
10 10 10 10 10 11 11 11 10 10 10 9 9 9 8 8 8 8 7 7 7 7 6 6 6 6 6 5 5 5 5 5 5 5 4 4 4 4 4 4 4 4 3 3
11 11 11 11 11 10 10 10 10 10 10 9 9 8 8 8 8 7 7 7 7 6 6 6 6 6 5 5 5 5 5 5 4 4 4 4 4 4 3 3 3 3 3 3
10 10 10 10 10 10 10 10 10 9 9 9 8 8 8 8 7 7 7 7 6 6 6 6 5 5 5 5 5 4 4 4 4 4 4 4 3 3 3 3 3 3 3 3
10 10 10 10 9 10 10 10 10 9 9 9 8 8 8 7 7 7 6 6 6 6 6 5 5 5 5 4 4 4 4 4 4 4 3 3 3 3 3 3 2 2 2 2
10 9 9 9 9 9 9 9 9 9 9 8 8 8 8 7 7 6 6 6 6 6 5 5 5 5 4 4 4 4 3 3 3 3 3 3 3 2 2 2 2 2 2 2
9 9 9 9 9 9 9 9 9 9 8 8 8 7 7 7 6 6 6 6 6 5 5 5 5 4 4 4 4 3 3 3 3 3 3 2 2 2 2 2 2 2 2 1
9 9 8 8 8 9 9 9 8 8 8 8 7 7 7 7 6 6 6 6 5 5 5 5 4 4 4 4 3 3 3 3 3 2 2 2 2 2 2 1 1 1 1 1
8 8 8 8 8 8 8 8 8 8 7 7 7 7 7 6 6 6 6 5 5 5 4 4 4 4 3 3 3 3 3 2 2 2 2 2 2 2 1 1 1 1 1 1
8 8 8 8 8 8 8 7 7 7 7 7 7 6 6 6 6 6 5 5 5 4 4 4 4 3 3 3 3 3 2 2 2 2 2 2 1 1 1 1 1 1 0 0
7 7 7 7 7 7 7 7 7 7 6 6 6 6 6 5 5 5 5 5 4 4 4 4 3 3 3 3 2 2 2 2 2 2 1 1 1 1 1 1 1 0 0 0
7 7 7 7 6 7 6 6 6 6 6 6 6 5 5 5 5 5 4 4 4 4 3 3 3 3 3 2 2 2 2 1 1 1 1 1 1 1 0 0 0 0 -0 -0
Wind_Speed
4 4 3 4 5 5 6 7 8 8 9 10 8 6 5 3 2 2 2 2 3 2 2 2 2 1 2 2 2 3 4 4 4 3 3 2 2 1 1 1 1 1 1 1
3 3 3 4 6 6 7 5 6 7 9 7 5 3 3 4 4 4 5 4 3 3 2 2 3 2 2 2 3 3 4 4 3 2 2 2 2 2 1 1 2 2 2 2
4 4 2 5 6 7 5 5 7 9 9 4 3 4 6 5 5 5 6 5 4 4 4 4 4 3 3 2 3 3 3 3 3 3 3 2 2 2 2 2 2 2 1 1
1 1 5 7 3 5 5 5 5 5 5 5 5 4 4 4 5 5 4 4 4 4 4 3 3 2 2 2 3 3 3 2 3 3 3 3 2 2 2 2 2 1 1 0
3 3 7 7 3 3 4 6 4 5 5 3 1 2 3 3 4 5 4 4 4 4 4 3 3 3 3 3 2 2 2 2 3 3 3 3 3 3 2 2 2 1 1 1
3 3 6 7 4 2 2 5 4 4 4 2 3 1 5 3 2 2 1 1 2 3 3 3 3 4 4 3 2 2 3 2 2 3 4 4 3 2 2 2 2 1 1 0
4 5 8 6 3 3 3 6 4 4 5 4 4 5 3 1 0 1 1 1 3 3 3 3 3 4 4 3 3 3 2 2 2 3 3 3 3 2 2 2 2 1 1 1
4 4 8 4 5 6 7 3 3 4 4 5 4 2 1 1 1 1 2 2 3 3 2 2 3 4 4 4 3 2 2 2 1 2 2 2 3 2 2 2 2 1 0 1
8 8 6 4 6 5 4 4 4 4 4 4 3 2 2 1 1 1 1 2 2 3 2 2 3 4 4 3 2 3 3 2 1 1 1 2 3 3 2 2 2 2 1 1
5 8 6 6 5 5 5 5 5 5 5 4 4 3 3 2 1 1 2 2 2 3 3 2 2 2 3 2 3 3 3 2 1 1 1 1 1 2 3 3 3 3 3 3
6 7 6 6 6 6 4 4 4 3 4 5 5 4 4 3 3 3 2 2 2 3 3 2 2 1 2 3 4 3 3 2 1 1 1 1 1 2 3 4 5 4 4 4
8 8 6 7 6 5 5 5 5 4 3 3 4 5 3 3 3 2 2 2 2 2 2 2 2 2 1 3 4 4 2 2 1 1 1 1 1 1 2 2 3 3 3 3
8 6 6 7 5 5 6 6 5 5 6 4 3 4 4 3 2 2 2 2 3 3 3 2 2 2 1 2 4 4 3 3 2 2 1 1 2 2 2 3 2 2 3 3
7 4 5 6 6 5 5 4 3 3 4 4 4 4 4 3 2 3 3 3 3 2 2 2 2 1 1 2 3 3 3 3 3 2 2 2 2 2 2 2 2 3 3 3
8 8 8 5 4 3 3 3 3 3 4 3 4 5 5 5 4 4 3 2 3 2 2 2 2 2 1 2 3 3 2 2 2 2 2 2 2 2 2 2 2 2 2 2
6 5 5 5 6 5 4 5 6 6 5 5 5 5 5 5 4 3 3 4 4 4 3 3 3 2 2 2 2 2 2 2 2 2 2 1 2 2 2 2 2 2 2 3
5 5 6 6 8 7 7 8 8 7 6 6 6 5 5 4 3 3 3 4 4 3 3 4 3 2 2 3 2 2 1 1 1 1 1 2 2 2 2 2 2 3 3 3
8 8 8 8 8 8 7 7 7 7 7 7 6 6 6 6 6 5 4 3 3 1 2 3 3 3 3 3 2 2 2 1 1 1 1 1 2 2 2 2 3 3 3 3
6 6 6 6 7 7 7 7 7 7 6 6 7 7 7 6 6 5 4 4 4 4 4 3 3 3 3 3 2 2 2 1 1 1 1 1 1 1 1 2 2 3 2 2
4 4 4 4 4 5 6 6 6 6 6 7 7 6 6 5 5 5 5 4 5 5 4 4 3 3 3 3 3 2 2 2 2 1 1 1 2 2 2 2 2 3 2 2
3 2 3 3 3 4 5 5 6 7 6 7 8 8 7 6 5 5 4 4 4 3 3 4 3 3 3 3 3 2 2 2 2 2 2 2 2 2 2 3 3 3 3 3
2 2 3 3 3 3 3 4 6 6 6 6 7 6 6 6 5 4 4 4 4 4 3 3 3 4 4 3 3 3 2 2 2 2 2 2 2 3 3 3 3 4 4 4
3 3 3 3 3 3 2 3 5 6 7 7 7 8 7 6 5 5 4 4 3 5 4 3 4 5 5 3 2 3 3 3 3 3 3 3 3 3 4 4 4 4 4 4
3 3 3 2 2 2 2 3 3 4 4 5 6 7 6 5 3 4 3 4 5 5 3 4 6 6 4 3 3 3 3 3 3 3 3 3 3 3 4 4 4 4 4 5
3 2 2 2 2 3 3 3 3 3 3 3 4 4 4 4 4 4 3 4 6 5 3 4 6 5 3 3 3 3 3 3 3 3 3 3 4 4 4 4 4 5 5 5
2 2 2 3 3 3 2 3 3 3 3 3 3 3 3 3 3 3 3 4 5 4 3 2 3 3 3 3 3 3 3 3 4 3 4 4 4 4 4 5 6 5 5 5
2 1 1 1 1 2 2 3 3 3 4 4 3 3 3 3 3 3 3 3 3 3 2 2 3 3 3 3 3 3 3 3 3 3 4 4 4 4 5 5 5 5 5 5
Wind_Direction
230 242 220 229 234 204 203 205 211 238 242 257 253 248 246 235 222 205 213 220 205 186 187 164 154 163 163 167 158 153 151 161 180 176 159 150 146 151 132 99 88 81 67 40
278 261 234 255 253 226 227 222 228 248 261 260 253 242 238 232 214 218 219 224 214 188 178 183 185 182 168 172 175 159 162 177 177 152 142 150 150 140 116 95 82 76 71 61
259 294 336 270 239 219 221 218 206 230 248 251 250 236 230 228 220 218 219 220 209 202 200 200 200 191 182 179 160 154 162 172 170 163 159 170 154 133 139 136 105 86 66 65
205 32 240 245 240 208 217 246 226 233 255 245 236 251 256 228 216 225 223 216 213 202 198 192 181 168 157 138 142 148 150 168 173 168 170 165 154 155 159 142 129 125 112 81
152 224 271 289 258 193 210 264 236 225 251 269 16 13 303 247 223 226 226 216 204 195 186 172 163 156 140 142 145 148 164 184 188 176 172 165 172 180 173 150 144 146 156 136
148 195 243 252 256 215 146 270 257 207 226 229 109 281 271 269 223 230 230 191 171 154 145 157 164 150 146 158 162 185 201 200 191 176 172 176 186 185 172 154 154 142 104 118
182 221 256 252 249 121 176 253 256 202 204 183 201 232 258 274 232 147 124 145 143 140 155 180 166 152 157 170 200 216 195 161 155 171 176 179 170 164 155 145 124 108 90 6
167 206 252 227 143 180 225 251 231 211 202 200 225 254 266 246 163 120 100 108 134 145 162 172 161 157 168 199 209 170 136 134 140 162 184 166 154 156 153 149 143 144 141 345
194 216 245 213 210 230 212 224 230 209 210 191 192 225 247 244 185 150 149 146 144 148 146 159 166 166 181 209 165 136 125 127 119 120 151 157 158 169 170 171 176 198 205 244
243 260 259 257 259 257 229 222 223 208 197 184 196 203 205 203 206 195 177 165 148 140 145 168 182 182 185 172 142 134 141 146 133 123 101 122 164 178 183 190 197 208 220 235
248 266 287 273 245 235 229 212 196 195 188 183 178 199 209 206 210 204 195 171 160 165 170 180 172 173 162 149 138 140 153 155 139 149 159 180 211 220 214 215 210 210 218 217
231 229 215 249 250 222 210 215 204 191 192 192 188 200 198 199 208 191 172 160 158 158 160 167 157 159 155 151 149 150 153 160 166 192 192 184 201 317 313 271 256 238 237 239
231 237 230 256 261 228 217 220 213 199 193 196 201 188 181 191 194 171 160 167 181 181 170 156 148 151 167 164 158 159 170 186 191 196 201 211 220 219 278 321 316 272 260 256
242 237 254 247 241 233 219 213 198 184 187 187 191 176 166 166 162 170 191 199 186 169 159 154 154 179 195 169 164 171 178 193 194 200 210 220 225 227 226 230 273 292 284 271
246 233 232 239 233 222 200 178 178 192 191 186 176 171 169 171 182 196 196 165 147 150 164 164 171 218 196 169 170 175 183 202 206 203 208 223 226 221 220 226 238 266 292 293
252 251 228 222 226 218 201 196 199 205 194 188 186 188 185 179 178 174 164 159 161 186 200 194 212 227 195 176 179 182 197 218 202 190 194 217 231 227 227 230 238 251 261 265
225 240 235 231 228 223 218 214 207 198 193 195 198 186 168 160 160 175 183 185 188 196 198 201 219 220 191 179 177 189 193 215 209 193 210 224 227 232 235 236 243 254 260 256
230 234 228 220 221 221 218 211 201 195 197 199 183 168 171 177 189 198 193 174 164 187 224 221 211 190 182 186 181 174 173 182 189 207 226 237 246 239 238 242 248 256 271 273
245 242 238 229 218 211 208 205 202 199 194 182 178 184 191 194 194 191 172 162 179 218 241 227 206 180 191 202 182 167 167 172 193 219 220 247 273 273 260 254 256 260 267 272
255 243 232 232 220 210 212 207 194 190 189 180 177 180 189 198 189 179 171 190 216 225 217 199 188 187 198 200 185 171 176 187 196 216 226 227 239 255 261 260 259 260 266 268
256 245 228 225 232 225 213 199 186 187 186 179 181 189 196 198 187 178 177 215 240 214 195 194 186 194 195 191 180 171 182 191 198 211 223 236 248 256 259 260 265 267 265 270
262 247 237 225 218 235 224 196 187 183 180 184 189 189 185 186 186 190 206 217 216 196 186 190 192 201 199 186 176 180 191 198 208 217 226 233 242 253 258 261 263 267 268 266
269 254 244 234 223 228 217 192 186 182 186 191 192 192 193 193 189 189 217 221 195 193 188 197 204 204 196 179 181 190 200 209 218 224 231 236 240 247 254 258 261 263 265 266
272 259 251 237 183 177 208 217 194 188 189 196 199 195 185 182 198 210 203 189 188 190 196 201 200 201 189 184 188 198 211 218 224 230 235 240 244 251 255 257 261 264 265 267
269 257 232 195 197 216 216 190 169 176 180 190 195 191 188 187 193 196 181 184 189 188 198 204 201 197 189 191 198 209 216 222 227 230 235 243 248 253 258 258 258 263 265 266
271 252 237 228 225 217 197 182 190 196 187 189 199 192 181 173 168 170 176 183 186 191 194 196 197 196 197 202 207 213 217 229 242 242 240 245 250 254 258 259 260 261 263 266
283 276 271 276 259 220 198 193 198 206 201 192 194 192 180 173 170 174 177 182 186 191 196 198 199 201 205 207 213 220 224 227 232 239 244 247 252 255 257 259 261 262 263 266
Height
1517 1515 1515 1515 1515 1516 1519 1520 1524 1519 1516 1509 1506 1505 1504 1504 1504 1504 1504 1504 1504 1505 1505 1506 1507 1508 1509 1510 1512 1513 1514 1515 1516 1517 1518 1519 1519 1520 1520 1519 1519 1519 1518 1518
1517 1514 1514 1515 1513 1513 1514 1514 1515 1513 1511 1503 1502 1502 1502 1501 1501 1501 1501 1502 1502 1503 1504 1504 1505 1506 1507 1508 1509 1510 1511 1512 1514 1515 1515 1516 1516 1517 1517 1517 1517 1517 1516 1516
1523 1517 1514 1517 1510 1510 1510 1508 1509 1509 1504 1500 1501 1500 1499 1499 1499 1498 1499 1499 1500 1501 1502 1503 1503 1504 1505 1505 1507 1508 1509 1510 1512 1512 1513 1514 1514 1514 1514 1515 1515 1515 1514 1514
1525 1521 1523 1512 1502 1502 1504 1503 1502 1501 1499 1498 1498 1497 1497 1496 1496 1496 1496 1497 1498 1499 1500 1501 1502 1503 1503 1504 1505 1505 1506 1508 1509 1510 1510 1511 1512 1512 1512 1513 1513 1513 1513 1512
1528 1525 1519 1508 1501 1502 1503 1502 1498 1498 1496 1496 1496 1496 1495 1494 1494 1494 1494 1495 1496 1497 1498 1499 1499 1500 1501 1502 1502 1503 1504 1505 1506 1507 1508 1508 1509 1509 1510 1510 1510 1510 1510 1510
1525 1522 1521 1507 1498 1496 1500 1501 1494 1494 1495 1495 1495 1498 1494 1491 1492 1492 1492 1493 1494 1495 1496 1496 1497 1498 1499 1499 1500 1500 1501 1502 1503 1504 1505 1506 1506 1507 1507 1508 1508 1508 1508 1508
1522 1521 1512 1499 1496 1497 1506 1501 1492 1491 1491 1493 1493 1493 1491 1490 1490 1490 1490 1491 1492 1492 1493 1494 1495 1496 1496 1497 1497 1498 1499 1500 1501 1502 1503 1503 1504 1505 1505 1505 1506 1506 1505 1506
1520 1520 1511 1493 1494 1497 1495 1490 1489 1488 1489 1490 1490 1489 1489 1488 1488 1488 1488 1489 1490 1490 1491 1492 1493 1494 1494 1495 1496 1496 1497 1498 1499 1500 1500 1501 1501 1502 1503 1503 1503 1503 1503 1503
1505 1502 1492 1489 1489 1488 1488 1488 1487 1486 1487 1488 1488 1488 1487 1487 1487 1487 1487 1488 1488 1489 1489 1490 1491 1492 1492 1493 1494 1494 1495 1496 1497 1498 1498 1498 1499 1499 1500 1500 1500 1500 1500 1500
1498 1491 1487 1486 1485 1485 1485 1485 1485 1485 1485 1486 1486 1486 1486 1486 1486 1486 1486 1486 1487 1487 1488 1488 1489 1490 1491 1491 1492 1492 1493 1494 1495 1495 1495 1496 1496 1497 1497 1497 1497 1497 1497 1497
1493 1487 1484 1482 1482 1482 1482 1482 1482 1482 1483 1483 1484 1484 1484 1484 1484 1484 1484 1485 1485 1485 1486 1487 1487 1488 1489 1489 1490 1491 1491 1492 1493 1493 1493 1493 1494 1494 1494 1494 1495 1495 1494 1494
1486 1480 1481 1478 1478 1479 1478 1478 1479 1480 1480 1481 1481 1481 1482 1482 1482 1482 1482 1483 1483 1484 1484 1485 1485 1486 1487 1487 1488 1488 1489 1489 1490 1491 1491 1491 1491 1491 1491 1492 1492 1492 1492 1492
1476 1475 1476 1475 1475 1475 1475 1475 1476 1477 1478 1478 1479 1479 1480 1480 1480 1480 1481 1481 1482 1482 1483 1483 1484 1484 1485 1485 1486 1486 1487 1487 1488 1488 1488 1488 1488 1488 1487 1488 1488 1488 1488 1488
1472 1472 1472 1471 1471 1472 1472 1473 1473 1474 1475 1475 1476 1477 1477 1478 1479 1479 1479 1480 1481 1481 1481 1481 1482 1482 1483 1483 1484 1484 1485 1485 1486 1486 1486 1486 1485 1485 1484 1484 1484 1484 1484 1484
1467 1468 1467 1467 1468 1468 1469 1470 1470 1471 1472 1472 1473 1474 1475 1475 1476 1477 1478 1479 1479 1479 1479 1480 1480 1480 1481 1481 1482 1482 1482 1482 1483 1483 1483 1483 1482 1482 1481 1481 1481 1480 1480 1481
1463 1463 1463 1463 1463 1464 1465 1466 1467 1467 1468 1469 1470 1471 1472 1473 1474 1475 1476 1476 1477 1477 1477 1477 1478 1478 1478 1479 1479 1479 1479 1480 1480 1480 1480 1480 1479 1479 1478 1478 1477 1477 1477 1477
1459 1458 1458 1458 1459 1459 1460 1462 1463 1464 1465 1466 1467 1468 1470 1471 1472 1472 1473 1474 1474 1475 1475 1475 1475 1476 1476 1476 1476 1476 1477 1477 1477 1477 1477 1477 1476 1476 1475 1475 1474 1474 1474 1474
1454 1454 1454 1454 1454 1455 1456 1457 1459 1460 1461 1463 1464 1466 1467 1468 1468 1469 1470 1471 1472 1472 1472 1473 1473 1473 1473 1473 1473 1473 1474 1474 1474 1474 1474 1473 1473 1472 1472 1471 1471 1470 1470 1470
1449 1450 1450 1450 1450 1451 1452 1453 1454 1456 1458 1459 1461 1462 1463 1464 1466 1467 1467 1468 1468 1468 1469 1470 1470 1470 1470 1470 1470 1470 1470 1471 1471 1470 1470 1470 1470 1469 1469 1468 1467 1467 1466 1466
1445 1445 1445 1446 1446 1447 1448 1449 1451 1452 1454 1456 1457 1458 1459 1461 1462 1463 1464 1464 1465 1465 1466 1467 1467 1466 1467 1467 1467 1467 1467 1467 1467 1467 1466 1466 1466 1466 1465 1464 1463 1463 1462 1462
1442 1442 1442 1442 1443 1443 1444 1445 1447 1448 1450 1452 1453 1454 1455 1457 1458 1459 1460 1460 1461 1462 1463 1463 1463 1463 1463 1464 1464 1464 1464 1463 1463 1463 1463 1462 1462 1462 1461 1460 1460 1459 1458 1457
1439 1439 1439 1439 1439 1440 1441 1442 1443 1444 1446 1447 1449 1450 1451 1453 1454 1455 1456 1457 1458 1459 1459 1459 1459 1460 1460 1460 1460 1460 1460 1460 1459 1459 1459 1459 1458 1458 1457 1456 1456 1455 1454 1453
1437 1436 1436 1436 1436 1437 1437 1438 1439 1440 1441 1443 1444 1446 1447 1448 1449 1450 1451 1452 1454 1454 1455 1455 1456 1456 1456 1456 1456 1456 1456 1456 1455 1455 1455 1454 1454 1453 1453 1452 1451 1450 1450 1449
1434 1433 1433 1433 1434 1434 1434 1435 1436 1437 1438 1439 1440 1441 1443 1444 1445 1447 1448 1448 1449 1450 1450 1451 1452 1452 1452 1452 1452 1452 1452 1451 1451 1451 1451 1450 1450 1449 1448 1448 1447 1446 1445 1444
1431 1431 1430 1430 1430 1430 1431 1432 1433 1433 1434 1435 1436 1437 1439 1440 1441 1442 1443 1444 1445 1446 1446 1447 1447 1448 1448 1448 1448 1447 1447 1447 1447 1447 1446 1446 1445 1444 1444 1443 1442 1441 1440 1439
1429 1428 1427 1428 1428 1428 1428 1429 1429 1430 1431 1431 1432 1434 1435 1436 1437 1438 1439 1440 1441 1441 1442 1442 1443 1443 1443 1443 1443 1443 1443 1442 1442 1442 1441 1441 1440 1439 1439 1438 1437 1436 1435 1434
1426 1425 1425 1425 1425 1425 1425 1426 1426 1426 1427 1428 1428 1430 1431 1432 1433 1434 1435 1436 1436 1437 1437 1438 1438 1439 1439 1439 1439 1438 1438 1438 1437 1437 1436 1436 1435 1434 1433 1432 1432 1431 1430 1429